Overview Statistics Trail Chart Weather Telemetry Raw packets
 

This is the latest recevied weather packets stored in our database for station/object PU5BHV. If no packets are shown the sender has not sent any weather packets the latest 10 day(s).

<< 48 49 50 51 52 53 54 >>
Time Temp. Humidity Pressure Rain* Wind** Luminosity Snow
1777287636 19.44° C 99% 1014.4 hPa 0 mm - 73 W/m² -
1777287332 19.44° C 99% 1014.2 hPa 0 mm - 79 W/m² -
1777287029 19.44° C 99% 1014.1 hPa 0 mm - 55 W/m² -
1777286726 20° C 99% 1014.1 hPa 0 mm - 52 W/m² -
1777286424 18.89° C 99% 1014.2 hPa 0 mm - 41 W/m² -
1777286120 18.89° C 99% 1014.1 hPa 0 mm - 39 W/m² -
1777285818 18.33° C 99% 1013.9 hPa 0 mm - 30 W/m² -
1777285515 18.33° C 99% 1013.8 hPa 0 mm - 22 W/m² -
1777285212 18.33° C 99% 1014.1 hPa 0 mm - 17 W/m² -
1777284910 18.33° C 99% 1013.7 hPa 0 mm - 13 W/m² -
1777284607 18.33° C 99% 1013.3 hPa 0 mm - 12 W/m² -
1777284303 18.33° C 99% 1013.1 hPa 0 mm - 10 W/m² -
1777284000 18.33° C 99% 1013 hPa 0 mm - 7 W/m² -
1777283696 18.33° C 99% 1012.9 hPa 0 mm - 6 W/m² -
1777283395 18.89° C 99% 1012.7 hPa 0 mm - 3 W/m² -
1777283094 18.89° C 99% 1012.6 hPa 0 mm - 2 W/m² -
1777282789 18.89° C 99% 1012.4 hPa 0 mm - 0 W/m² -
1777282485 18.89° C 99% 1012.4 hPa 0 mm - 0 W/m² -
1777282183 19.44° C 99% 1012.2 hPa 0 mm - 0 W/m² -
1777281880 19.44° C 99% 1012.1 hPa 0 mm - 0 W/m² -
1777281577 19.44° C 99% 1011.9 hPa 0 mm - 0 W/m² -
1777281274 19.44° C 99% 1012.1 hPa 0 mm - 0 W/m² -
1777280971 19.44° C 99% 1011.9 hPa 1.27 mm - 0 W/m² -
1777280667 19.44° C 99% 1011.7 hPa 1.27 mm - 0 W/m² -
1777280364 19.44° C 99% 1012 hPa 0 mm - 0 W/m² -

* Rain latest hour (hover to see other rain measurements)
** Current wind speed in m/s (hover to see current wind gust speed)